X  Close Partly cloudy throughout the day.
Conditions Temperature Feels Precipitation Wind Wind Direction UV index Pressure
9:00 partly-cloudy-day Mostly Cloudy 66° - 8-19 mph WSW WSW uv-1 1013,60
10:00 partly-cloudy-day Mostly Cloudy 70° - 9-18 mph WSW WSW uv-2 1013,70
11:00 partly-cloudy-day Partly Cloudy 72° 0 in 3% 10-19 mph SW SW uv-4 1013,80
12:00 partly-cloudy-day Mostly Cloudy 72° 0 in 4% 10-17 mph NW NW uv-4 1014,20
1:00 partly-cloudy-day Mostly Cloudy 71° 0.01 in 8% 11-18 mph WNW WNW uv-4 1014,70
2:00 partly-cloudy-day Mostly Cloudy 70° 0.01 in 7% 11-17 mph WNW WNW uv-4 1015,30
3:00 cloudy Overcast 69° 0 in 2% 10-16 mph WNW WNW uv-3 1016,00
4:00 cloudy Overcast 68° 0 in 1% 9-15 mph NW NW uv-2 1016,70
5:00 cloudy Overcast 68° - 8-14 mph WNW WNW uv-1 1018,20
6:00 partly-cloudy-day Mostly Cloudy 66° - 6-13 mph WNW WNW - 1018,80
7:00 partly-cloudy-night Partly Cloudy 62° - 5-11 mph WNW WNW - 1019,10
8:00 clear-night Clear 59° - 5-10 mph NW NW - 1020,00
9:00 clear-night Clear 57° - 4-9 mph NW NW - 1020,80
10:00 clear-night Clear 55° - 5-9 mph NW NW - 1021,60
11:00 clear-night Clear 53° 0 in 1% 4-8 mph NW NW - 1022,00
12:00 clear-night Clear 52° 0 in 1% 5-10 mph NW NW - 1022,20
1:00 clear-night Clear 51° - 4-4 mph NW NW - 1023,00
2:00 clear-night Clear 50° 0 in 2% 4-4 mph NNW NNW - 1023,20
3:00 partly-cloudy-night Partly Cloudy 49° 0 in 3% 4-4 mph NW NW - 1023,50
4:00 partly-cloudy-night Partly Cloudy 49° 0 in 4% 4-4 mph NW NW - 1023,90
5:00 clear-night Clear 48° 0 in 4% 4-4 mph NW NW - 1024,30
6:00 clear-night Clear 47° 0 in 5% 4-4 mph NNW NNW - 1024,70
7:00 clear-day Clear 45° 0 in 3% 4-5 mph North North - 1025,20
8:00 clear-day Clear 49° 0 in 3% 3-6 mph NNE NNE - 1025,30
9:00 clear-day Clear 55° 0 in 2% 3-6 mph ENE ENE uv-1 1025,30
10:00 clear-day Clear 59° - 3-7 mph ESE ESE uv-3 1025,10
11:00 clear-day Clear 62° - 4-7 mph SE SE uv-4 1025,10
12:00 partly-cloudy-day Partly Cloudy 65° - 4-7 mph SSE SSE uv-5 1024,90
1:00 partly-cloudy-day Partly Cloudy 68° 0 in 2% 5-10 mph South South uv-5 1023,10
2:00 partly-cloudy-day Partly Cloudy 70° 0 in 1% 6-10 mph SSW SSW uv-4 1022,60
3:00 partly-cloudy-day Partly Cloudy 70° - 6-11 mph South South uv-3 1022,60
4:00 clear-day Clear 70° - 6-12 mph South South uv-2 1022,70
5:00 clear-day Clear 69° - 6-13 mph South South uv-1 1022,30
6:00 clear-day Clear 67° - 5-14 mph South South - 1022,10
7:00 clear-night Clear 61° - 5-12 mph SE SE - 1022,10
8:00 clear-night Clear 58° - 5-12 mph SE SE - 1022,30
9:00 clear-night Clear 56° - 5-13 mph SE SE - 1022,40
10:00 clear-night Clear 55° - 5-13 mph SSE SSE - 1022,20
11:00 clear-night Clear 54° - 5-13 mph SSE SSE - 1022,10
12:00 clear-night Clear 54° - 5-13 mph SSE SSE - 1021,90
1:00 clear-night Clear 53° - 5-13 mph South South - 1022,10
2:00 clear-night Clear 53° - 5-13 mph South South - 1021,90
3:00 clear-night Clear 52° - 5-14 mph South South - 1021,60
4:00 clear-night Clear 52° - 4-15 mph SSW SSW - 1021,30
5:00 clear-night Clear 52° - 5-17 mph SSW SSW - 1021,20
6:00 clear-night Clear 52° - 5-20 mph SSW SSW - 1021,10
7:00 clear-day Clear 51° - 5-24 mph SSW SSW - 1021,10
8:00 clear-day Clear 55° - 7-25 mph SSW SSW - 1020,50
9:00 clear-day Clear 61° - 8-25 mph SSW SSW uv-1 1020,10